Rolla, MO

3:30 PM CST on November 23, 2017 (GMT -0600)
Rolla National

Weather History for KVIH - October, 2012

Change the Weather History Date:

Wednesday, October 31, 2012

  Actual Average Record
Temperature  
Mean Temperature 46 °F 52 °F  
Max Temperature 57 °F 62 °F 85 °F (1950)
Min Temperature 35 °F 41 °F 22 °F (1898)
Degree Days  
Heating Degree Days 19 14  
Month to date heating degree days 383 286  
Since 1 July heating degree days 465 350  
Cooling Degree Days 0 0  
Month to date cooling degree days 25 25  
Year to date cooling degree days 1691 1243  
Moisture  
Dew Point 25 °F    
Average Humidity 49    
Maximum Humidity 70    
Minimum Humidity 22    
Precipitation  
Precipitation 0.00 in 0.12 in 2.78 in (1946)
Month to date precipitation 3.10 3.51  
Year to date precipitation 29.66 37.10  
Sea Level Pressure  
Sea Level Pressure 29.99 in    
Wind  
Wind Speed 8 mph (WNW)    
Max Wind Speed 16 mph    
Max Gust Speed 22 mph    
Visibility 10 miles    
Events      
T = Trace of Precipitation, MM = Missing Value Source: NWS Daily Summary

Daily Weather History Graph

Daily Weather History Graph

Search for Another Location

Airport or City:

Trip Planner

Search our weather history database for the weather conditions in past years. The results will help you decide how hot, cold, wet, or windy it might be!

Date:

Astronomy

Oct. 31, 2012 Rise Set
Actual Time 7:32 AM CDT 6:08 PM CDT
Civil Twilight 7:05 AM CDT 6:35 PM CDT
Nautical Twilight 6:34 AM CDT 7:06 PM CDT
Astronomical Twilight 6:03 AM CDT 7:37 PM CDT
Moon 7:21 PM CDT (10/31) 9:12 AM CDT (10/31)
Length of Visible Light 11h 30m
Length of Day
10h 35m
Full, 97% of the Moon is Illuminated
Oct 31
Full
Nov 6
Last Quarter
Nov 13
New
Nov 20
First Quarter
Nov 28
Full

Hourly Weather History & Observations

Time (CDT) Temp. Windchill Dew Point Humidity Pressure Visibility Wind Dir Wind Speed Gust Speed Precip Events Conditions
12:53 AM 41.0 °F 36.4 °F 27.0 °F 57% 29.96 in 10.0 mi WNW 6.9 mph - N/A   Clear
1:53 AM 39.0 °F 33.4 °F 27.0 °F 62% 29.97 in 10.0 mi WNW 8.1 mph - N/A   Clear
2:53 AM 37.9 °F 32.7 °F 27.0 °F 65% 29.97 in 10.0 mi WNW 6.9 mph - N/A   Clear
3:53 AM 37.0 °F 32.4 °F 27.0 °F 67% 29.97 in 10.0 mi WNW 5.8 mph - N/A   Clear
4:53 AM 37.0 °F 31.6 °F 27.0 °F 67% 29.96 in 10.0 mi WNW 6.9 mph - N/A   Clear
5:53 AM 36.0 °F 31.1 °F 27.0 °F 70% 29.97 in 10.0 mi WNW 5.8 mph - N/A   Clear
6:53 AM 36.0 °F 29.6 °F 27.0 °F 70% 29.97 in 10.0 mi WNW 8.1 mph - N/A   Clear
7:53 AM 36.0 °F 30.3 °F 27.0 °F 70% 29.99 in 10.0 mi WNW 6.9 mph - N/A   Clear
8:53 AM 39.0 °F 32.3 °F 28.0 °F 65% 30.01 in 10.0 mi NW 10.4 mph - N/A   Clear
9:53 AM 43.0 °F 38.2 °F 28.0 °F 56% 30.01 in 10.0 mi NW 8.1 mph - N/A   Clear
10:53 AM 46.9 °F - 26.1 °F 44% 30.01 in 10.0 mi NW 9.2 mph - N/A   Clear
11:53 AM 51.1 °F - 23.0 °F 33% 30.01 in 10.0 mi NW 10.4 mph - N/A   Clear
12:53 PM 53.1 °F - 21.0 °F 29% 30.00 in 10.0 mi NW 8.1 mph 16.1 mph N/A   Clear
1:53 PM 55.0 °F - 17.1 °F 23% 29.99 in 10.0 mi WNW 13.8 mph 17.3 mph N/A   Clear
2:53 PM 55.9 °F - 17.1 °F 22% 29.97 in 10.0 mi WNW 16.1 mph 19.6 mph N/A   Clear
3:53 PM 57.0 °F - 21.0 °F 25% 29.96 in 10.0 mi NW 6.9 mph - N/A   Clear
4:53 PM 53.1 °F - 24.1 °F 32% 29.97 in 10.0 mi NW 9.2 mph - N/A   Clear
5:53 PM 51.1 °F - 24.1 °F 35% 29.98 in 10.0 mi WNW 6.9 mph - N/A   Clear
6:53 PM 48.0 °F - 23.0 °F 37% 29.99 in 10.0 mi WNW 4.6 mph - N/A   Clear
7:53 PM 46.9 °F - 25.0 °F 42% 30.00 in 10.0 mi WNW 4.6 mph - N/A   Clear
8:53 PM 46.0 °F 42.5 °F 27.0 °F 47% 30.01 in 10.0 mi WNW 6.9 mph - N/A   Clear
9:53 PM 46.0 °F 42.5 °F 28.0 °F 50% 30.01 in 10.0 mi WNW 6.9 mph - N/A   Clear
10:53 PM 44.6 °F 40.7 °F 28.4 °F 53% 30.00 in 10.0 mi WNW 6.9 mph - N/A   Clear
11:53 PM 44.1 °F 40.8 °F 28.0 °F 53% 30.00 in 10.0 mi WNW 5.8 mph - N/A   Clear